DIRECTV 11

Last updated on Tue Jul 01 2025 00:02:44 GMT+0000 (Coordinated Universal Time)

1 32729U 08013A 25181.54815881 -.00000125 00000+0 00000+0 0 9999 2 32729 0.0060 87.6488 0000546 216.1415 73.2083 1.00267532 42068
UTC large
Height (km)
Speed (km/s)
/
Latitude / Longitude
Inclination (degrees)
Orbital Period (minutes)
Azimuth
Elevation
Range (km)
Doppler Factor

Next 0 passes for location: London (51.5072 / 0.1276)

Sorry there are no passes over London.